Rantoul, IL

11:41 AM CDT on April 24, 2018 (GMT -0500)
Rantoul

Weather History for KTIP - April, 2013

Change the Weather History Date:

Monday, April 1, 2013

  Actual Average (KCMI) Record (KCMI)
Temperature  
Mean Temperature 38 °F -  
Max Temperature 45 °F 56 °F 86 °F (2012)
Min Temperature 31 °F 35 °F 22 °F (2018)
Degree Days  
Heating Degree Days 27    
Moisture  
Dew Point 22 °F    
Average Humidity 53    
Maximum Humidity 76    
Minimum Humidity 30    
Precipitation  
Precipitation 0.00 in - - ()
Sea Level Pressure  
Sea Level Pressure 30.10 in    
Wind  
Wind Speed 12 mph (NW)    
Max Wind Speed 18 mph    
Max Gust Speed 25 mph    
Visibility 10 miles    
Events      
Averages and records for this station are not official NWS values.
T = Trace of Precipitation, MM = Missing Value Source: NWS Daily Summary

Daily Weather History Graph

Daily Weather History Graph

Search for Another Location

Airport or City:

Astronomy

Apr. 01, 2013 Rise Set
Actual Time 6:35 AM CDT 7:17 PM CDT
Civil Twilight 6:08 AM CDT 7:44 PM CDT
Nautical Twilight 5:36 AM CDT 8:17 PM CDT
Astronomical Twilight 5:02 AM CDT 8:50 PM CDT
Moon 12:25 AM CDT (4/1) 10:21 AM CDT (4/1)
Length of Visible Light 13h 36m
Length of Day
12h 41m
Waning Gibbous, 67% of the Moon is Illuminated
Apr 1
Waning Gibbous
Apr 2
Last Quarter
Apr 10
New
Apr 18
First Quarter
Apr 25
Full

Hourly Weather History & Observations

Time (CDT) Temp. Windchill Dew Point Humidity Pressure Visibility Wind Dir Wind Speed Gust Speed Precip Events Conditions
12:15 AM 41.0 °F 34.7 °F 32.0 °F 70% 29.93 in 10.0 mi NNW 10.4 mph - N/A   Clear
12:35 AM 40.5 °F 33.6 °F 32.0 °F 72% 29.93 in 10.0 mi NNW 11.5 mph 17.3 mph N/A   Clear
12:55 AM 40.5 °F 32.5 °F 29.7 °F 65% 29.94 in 10.0 mi NNW 15.0 mph 19.6 mph N/A   Clear
1:15 AM 40.1 °F 32.4 °F 28.2 °F 63% 29.95 in 10.0 mi NW 13.8 mph 21.9 mph N/A   Scattered Clouds
1:35 AM 40.1 °F 32.4 °F 28.2 °F 63% 29.95 in 10.0 mi NW 13.8 mph 20.7 mph N/A   Scattered Clouds
1:55 AM 39.4 °F 31.4 °F 28.0 °F 64% 29.95 in 10.0 mi NW 13.8 mph 20.7 mph N/A   Mostly Cloudy
2:15 AM 39.2 °F 31.2 °F 28.2 °F 65% 29.95 in 10.0 mi NW 13.8 mph - N/A   Mostly Cloudy
2:35 AM 38.7 °F 31.8 °F 28.6 °F 67% 29.96 in 10.0 mi NW 10.4 mph 18.4 mph N/A   Overcast
2:55 AM 37.9 °F 30.5 °F 28.6 °F 69% 29.97 in 10.0 mi NW 11.5 mph 18.4 mph N/A   Mostly Cloudy
3:15 AM 37.8 °F 30.2 °F 28.9 °F 71% 29.98 in 10.0 mi NW 11.5 mph - N/A   Scattered Clouds
3:35 AM 37.6 °F 30.0 °F 27.9 °F 68% 29.98 in 10.0 mi NW 11.5 mph 18.4 mph N/A   Clear
3:55 AM 37.4 °F 29.8 °F 27.1 °F 66% 29.99 in 10.0 mi NW 11.5 mph - N/A   Clear
4:15 AM 36.9 °F 28.7 °F 27.1 °F 68% 30.00 in 10.0 mi NW 12.7 mph 17.3 mph N/A   Scattered Clouds
4:35 AM 36.5 °F 29.2 °F 26.6 °F 67% 30.01 in 10.0 mi NW 10.4 mph - N/A   Clear
5:15 AM 34.9 °F 28.3 °F 26.6 °F 72% 30.02 in 10.0 mi NW 8.1 mph - N/A   Scattered Clouds
5:35 AM 34.0 °F 26.6 °F 26.6 °F 74% 30.03 in 10.0 mi NW 9.2 mph - N/A   Mostly Cloudy
5:55 AM 33.4 °F 25.4 °F 25.9 °F 74% 30.04 in 10.0 mi NW 10.4 mph - N/A   Mostly Cloudy
6:15 AM 32.9 °F 25.3 °F 25.3 °F 74% 30.05 in 10.0 mi NW 9.2 mph - N/A   Scattered Clouds
6:35 AM 32.2 °F 23.8 °F 25.5 °F 76% 30.06 in 10.0 mi NW 10.4 mph - N/A   Clear
7:15 AM 32.0 °F 24.2 °F 25.0 °F 75% 30.08 in 10.0 mi NW 9.2 mph - N/A   Clear
7:35 AM 32.9 °F 25.3 °F 25.3 °F 74% 30.09 in 10.0 mi NW 9.2 mph - N/A   Clear
7:55 AM 33.4 °F 24.3 °F 23.9 °F 68% 30.10 in 10.0 mi NW 12.7 mph 18.4 mph N/A   Clear
8:15 AM 34.3 °F 24.6 °F 23.7 °F 65% 30.11 in 10.0 mi NNW 15.0 mph 19.6 mph N/A   Clear
8:35 AM 35.1 °F 26.9 °F 23.5 °F 63% 30.11 in 10.0 mi NNW 11.5 mph 18.4 mph N/A   Clear
8:55 AM 35.6 °F 26.2 °F 22.3 °F 58% 30.12 in 10.0 mi NNW 15.0 mph 18.4 mph N/A   Clear
9:15 AM 36.7 °F 27.6 °F 21.4 °F 54% 30.12 in 10.0 mi NNW 15.0 mph 19.6 mph N/A   Clear
9:35 AM 37.8 °F 30.2 °F 21.4 °F 52% 30.13 in 10.0 mi NNW 11.5 mph - N/A   Clear
9:55 AM 38.1 °F 29.8 °F 20.8 °F 50% 30.14 in 10.0 mi NW 13.8 mph - N/A   Clear
10:35 AM 39.4 °F 31.1 °F 19.0 °F 44% 30.14 in 10.0 mi NNW 15.0 mph - N/A   Clear
10:55 AM 39.7 °F 32.3 °F 17.8 °F 41% 30.14 in 10.0 mi NNW 12.7 mph 23.0 mph N/A   Clear
11:15 AM 40.6 °F 33.8 °F 18.3 °F 41% 30.15 in 10.0 mi NW 11.5 mph 19.6 mph N/A   Clear
11:35 AM 41.7 °F 35.2 °F 18.7 °F 40% 30.15 in 10.0 mi NW 11.5 mph 18.4 mph N/A   Clear
11:55 AM 41.9 °F 35.4 °F 18.7 °F 39% 30.15 in 10.0 mi NNW 11.5 mph 24.2 mph N/A   Clear
12:15 PM 41.9 °F 33.7 °F 18.1 °F 38% 30.15 in 10.0 mi NNW 17.3 mph 21.9 mph N/A   Scattered Clouds
12:35 PM 43.2 °F 35.3 °F 18.7 °F 38% 30.15 in 10.0 mi WNW 17.3 mph 21.9 mph N/A   Scattered Clouds
12:55 PM 43.3 °F 36.5 °F 18.3 °F 37% 30.14 in 10.0 mi NNW 13.8 mph 25.3 mph N/A   Scattered Clouds
1:15 PM 44.1 °F 37.4 °F 17.4 °F 34% 30.14 in 10.0 mi NW 13.8 mph 20.7 mph N/A   Clear
1:35 PM 44.4 °F 37.9 °F 18.3 °F 35% 30.14 in 10.0 mi NNW 13.8 mph 23.0 mph N/A   Clear
1:55 PM 44.2 °F 36.7 °F 16.7 °F 33% 30.14 in 10.0 mi NW 17.3 mph 24.2 mph N/A   Clear
2:15 PM 43.9 °F 36.5 °F 17.4 °F 35% 30.14 in 10.0 mi NW 16.1 mph 23.0 mph N/A   Clear
2:55 PM 45.1 °F 38.1 °F 17.2 °F 33% 30.14 in 10.0 mi NW 16.1 mph 25.3 mph N/A   Scattered Clouds
3:15 PM 45.5 °F 38.9 °F 16.9 °F 32% 30.14 in 10.0 mi NNW 15.0 mph 23.0 mph N/A   Clear
3:35 PM 45.3 °F 38.4 °F 17.4 °F 33% 30.13 in 10.0 mi NW 16.1 mph 21.9 mph N/A   Clear
3:55 PM 45.5 °F 38.6 °F 15.8 °F 30% 30.14 in 10.0 mi WNW 16.1 mph 19.6 mph N/A   Clear
4:15 PM 45.0 °F 37.9 °F 15.3 °F 30% 30.14 in 10.0 mi WNW 16.1 mph 25.3 mph N/A   Scattered Clouds
4:35 PM 44.6 °F 38.1 °F 15.6 °F 31% 30.14 in 10.0 mi NW 13.8 mph 21.9 mph N/A   Scattered Clouds
4:55 PM 44.8 °F 37.4 °F 15.4 °F 31% 30.14 in 10.0 mi NW 17.3 mph 24.2 mph N/A   Clear
5:15 PM 44.6 °F 36.9 °F 15.6 °F 31% 30.14 in 10.0 mi NW 18.4 mph 25.3 mph N/A   Clear
5:35 PM 44.2 °F 37.0 °F 15.8 °F 32% 30.14 in 10.0 mi WNW 16.1 mph 20.7 mph N/A   Clear
5:55 PM 43.7 °F 36.6 °F 15.3 °F 32% 30.14 in 10.0 mi NW 15.0 mph 20.7 mph N/A   Clear
6:15 PM 43.0 °F 35.7 °F 15.6 °F 33% 30.15 in 10.0 mi NW 15.0 mph - N/A   Clear
6:35 PM 41.9 °F 34.0 °F 14.7 °F 33% 30.15 in 10.0 mi NW 16.1 mph 20.7 mph N/A   Clear
6:55 PM 41.0 °F 33.9 °F 16.0 °F 36% 30.16 in 10.0 mi NW 12.7 mph - N/A   Clear
7:15 PM 39.9 °F 33.4 °F 17.2 °F 40% 30.16 in 10.0 mi NW 10.4 mph 17.3 mph N/A   Clear
7:35 PM 38.7 °F 31.8 °F 18.0 °F 43% 30.16 in 10.0 mi NW 10.4 mph - N/A   Clear
7:55 PM 37.9 °F 31.5 °F 18.3 °F 45% 30.16 in 10.0 mi NW 9.2 mph - N/A   Clear
8:15 PM 37.2 °F 31.9 °F 18.7 °F 47% 30.16 in 10.0 mi NW 6.9 mph - N/A   Clear
8:35 PM 36.5 °F 30.3 °F 19.2 °F 50% 30.17 in 10.0 mi NW 8.1 mph - N/A   Clear
9:15 PM 34.5 °F 28.6 °F 20.1 °F 56% 30.19 in 10.0 mi NW 6.9 mph - N/A   Clear
9:35 PM 33.6 °F 28.4 °F 20.5 °F 59% 30.19 in 10.0 mi NW 5.8 mph - N/A   Clear
9:55 PM 33.1 °F 26.9 °F 20.7 °F 60% 30.19 in 10.0 mi NW 6.9 mph - N/A   Clear
10:15 PM 32.4 °F 26.0 °F 20.8 °F 63% 30.20 in 10.0 mi NW 6.9 mph - N/A   Clear
10:35 PM 32.0 °F 26.4 °F 21.2 °F 64% 30.20 in 10.0 mi NW 5.8 mph - N/A   Clear
10:55 PM 31.8 °F 25.4 °F 21.2 °F 65% 30.20 in 10.0 mi NW 6.9 mph - N/A   Clear
11:15 PM 31.5 °F 24.2 °F 21.2 °F 66% 30.20 in 10.0 mi NW 8.1 mph - N/A   Clear
11:35 PM 31.5 °F 24.2 °F 21.2 °F 66% 30.20 in 10.0 mi NW 8.1 mph - N/A   Clear
11:55 PM 31.5 °F 24.2 °F 21.2 °F 66% 30.20 in 10.0 mi NW 8.1 mph - N/A   Clear